This demonstration page uses our WeatherBlox Daily Observations layout. Learn more.

Left ArrowRight Arrow

Hourly Observations for March 21, 2020

Temp ( °F °C ) Dew Point ( °F °C ) Humidity (%) Winds ( mph kmh ) Pressure ( in mb ) Visibility ( mi km ) Precip ( " mm )
12:53 am 00:53 Clear 45 7.2 37 2.8 74 74 NNW 6 9 30.16 1022 10 16 0.00 0.00
1:53 am 01:53 Clear 45 7.2 37 2.8 74 74 NNW 3 6 30.16 1021 10 16 0.00 0.00
2:53 am 02:53 Clear 44 6.7 36 2.2 73 73 N 5 7 30.15 1021 10 16 0.00 0.00
3:53 am 03:53 Clear 40 4.4 36 2.2 86 86 NW 5 7 30.14 1021 10 16 0.00 0.00
4:53 am 04:53 Clear 42 5.6 36 2.2 79 79 NNW 3 6 30.13 1020 10 16 0.00 0.00
5:53 am 05:53 Clear 40 4.4 36 2.2 86 86 NW 5 7 30.14 1021 10 16 0.00 0.00
6:53 am 06:53 Clear 37 2.8 34 1.1 89 89 Calm 30.14 1021 10 16 0.00 0.00
7:53 am 07:53 Sunny 38 3.3 34 1.1 86 86 ESE 3 6 30.14 1021 10 16 0.00 0.00
8:53 am 08:53 Sunny 45 7.2 37 2.8 74 74 Calm 30.14 1021 10 16 0.00 0.00
9:53 am 09:53 Sunny 51 10.6 39 3.9 64 64 Calm 30.14 1021 10 16 0.00 0.00
10:53 am 10:53 Sunny 59 15 41 5 51 51 Calm 30.11 1020 10 16 0.00 0.00
11:53 am 11:53 Sunny 66 18.9 37 2.8 34 34 NNE 5 7 30.10 1019 10 16 0.00 0.00
12:53 pm 12:53 Sunny 68 20 38 3.3 33 33 Calm 30.08 1019 10 16 0.00 0.00
1:53 pm 13:53 Sunny 69 20.6 39 3.9 33 33 S 5 7 30.06 1018 10 16 0.00 0.00
2:53 pm 14:53 Sunny 71 21.7 36 2.2 28 28 VRB 5 7 30.03 1017 10 16 0.00 0.00
3:53 pm 15:53 Sunny 71 21.7 40 4.4 32 32 S 10 17 30.02 1017 10 16 0.00 0.00
4:53 pm 16:53 Sunny 70 21.1 41 5 35 35 SSE 13 20 30.01 1016 10 16 0.00 0.00
5:53 pm 17:53 Sunny 69 20.6 40 4.4 35 35 SSE 13 20 30.01 1016 10 16 0.00 0.00
6:53 pm 18:53 Sunny 66 18.9 39 3.9 37 37 S 14 22 30.03 1017 10 16 0.00 0.00
7:53 pm 19:53 Partly Cloudy 61 16.1 40 4.4 46 46 S 9 15 30.05 1018 10 16 0.00 0.00
8:53 pm 20:53 Mostly Clear 59 15 42 5.6 54 54 S 6 9 30.08 1019 10 16 0.00 0.00
9:53 pm 21:53 Clear 58 14.4 43 6.1 58 58 S 6 9 30.10 1019 10 16 0.00 0.00
10:53 pm 22:53 Clear 56 13.3 42 5.6 60 60 SSW 3 6 30.13 1020 10 16 0.00 0.00
11:53 pm 23:53 Clear 53 11.7 42 5.6 66 66 Calm 30.13 1020 10 16 0.00 0.00

Powered by AerisWeather